| time (UTC) | temp F | wind direction | speed MPH | gust MPH | rain 1hr in | rain 24hr in | rain mn in | humidity % | barometer mb |
| 20260505000532 | 49 | 73 | 1.0 | 2.0 | 0.00 | 0.00 | 0.00 | 98 | 1008.6 |
| 20260504234532 | 50 | 269 | 0.0 | 2.0 | 0.00 | 0.00 | 0.00 | 98 | 1008.4 |
| 20260504232532 | 52 | 227 | 2.0 | 3.0 | 0.00 | 0.00 | 0.00 | 98 | 1008.1 |
| 20260504230532 | 54 | 121 | 1.0 | 3.0 | 0.00 | 0.00 | 0.00 | 98 | 1007.8 |
| 20260504224532 | 56 | 209 | 2.0 | 3.0 | 0.00 | 0.00 | 0.00 | 98 | 1007.6 |
| 20260504222533 | 57 | 181 | 3.0 | 3.0 | 0.00 | 0.00 | 0.00 | 98 | 1007.6 |
| 20260504212533 | 62 | 221 | 3.0 | 4.0 | 0.00 | 0.00 | 0.00 | 98 | 1007.3 |
| 20260504210532 | 64 | 209 | 3.0 | 4.0 | 0.00 | 0.00 | 0.00 | 98 | 1007.3 |
| 20260504204532 | 64 | 214 | 3.0 | 4.0 | 0.00 | 0.00 | 0.00 | 98 | 1007.2 |
| 20260504202533 | 65 | 265 | 2.0 | 4.0 | 0.00 | 0.00 | 0.00 | 98 | 1007.3 |
| 20260504194532 | 67 | 70 | 2.0 | 4.0 | 0.00 | 0.00 | 0.00 | 98 | 1007.3 |
| 20260504192531 | 66 | 289 | 1.0 | 2.0 | 0.00 | 0.00 | 0.00 | 98 | 1007.5 |
| 20260504190531 | 60 | 285 | 0.0 | 2.0 | 0.00 | 0.00 | 0.00 | 98 | 1007.8 |
| 20260504182532 | 59 | 232 | 4.0 | 5.0 | 0.00 | 0.00 | 0.00 | 98 | 1007.7 |
| 20260504180531 | 59 | 225 | 3.0 | 5.0 | 0.00 | 0.00 | 0.00 | 98 | 1007.6 |
| 20260504174531 | 62 | 249 | 5.0 | 9.0 | 0.00 | 0.01 | 0.00 | 98 | 1007.3 |
| 20260504172531 | 64 | 235 | 6.0 | 10.0 | 0.00 | 0.01 | 0.00 | 98 | 1007.2 |
| 20260504170531 | 62 | 235 | 9.0 | 11.0 | 0.00 | 0.01 | 0.00 | 98 | 1007.3 |
| 20260504150531 | 63 | 241 | 5.0 | 6.0 | 0.00 | 0.07 | 0.00 | 98 | 1008.5 |
| 20260504140531 | 58 | 222 | 5.0 | 8.0 | 0.00 | 0.12 | 0.00 | 98 | 1009.5 |
| 20260504130531 | 60 | 251 | 3.0 | 5.0 | 0.00 | 0.12 | 0.00 | 98 | 1010.0 |
| 20260504110531 | 40 | 0 | 0.0 | 0.0 | 0.00 | 0.19 | 0.00 | 98 | 1010.4 |
| 20260504080531 | 32 | 0 | 0.0 | 1.0 | 0.00 | 0.24 | 0.00 | 98 | 1010.1 |
| 20260504050531 | 34 | 0 | 0.0 | 0.0 | 0.00 | 0.27 | 0.00 | 98 | 1009.6 |
| 20260504044531 | 34 | 0 | 0.0 | 0.0 | 0.00 | 0.27 | 0.00 | 98 | 1009.7 |
| 20260504042531 | 35 | 0 | 0.0 | 0.0 | 0.00 | 0.27 | 0.00 | 98 | 1009.6 |
| 20260504040531 | 36 | 0 | 0.0 | 0.0 | 0.00 | 0.27 | 0.00 | 98 | 1009.4 |
| 20260504032531 | 38 | 0 | 0.0 | 0.0 | 0.00 | 0.27 | 0.27 | 98 | 1009.2 |
| 20260504030531 | 39 | 4 | 0.0 | 1.0 | 0.00 | 0.27 | 0.27 | 98 | 1009.1 |
| 20260504024531 | 39 | 112 | 0.0 | 2.0 | 0.00 | 0.27 | 0.27 | 98 | 1008.9 |
| 20260504022531 | 41 | 229 | 1.0 | 3.0 | 0.00 | 0.27 | 0.27 | 98 | 1008.7 |
| 20260504020531 | 42 | 236 | 2.0 | 2.0 | 0.00 | 0.27 | 0.27 | 98 | 1008.5 |
| 20260504014531 | 41 | 195 | 2.0 | 4.0 | 0.00 | 0.27 | 0.27 | 98 | 1008.5 |
| 20260504012531 | 42 | 183 | 1.0 | 4.0 | 0.00 | 0.27 | 0.27 | 98 | 1008.2 |
| 20260504010531 | 43 | 209 | 2.0 | 3.0 | 0.00 | 0.27 | 0.27 | 98 | 1007.8 |
| 20260504002531 | 45 | 215 | 4.0 | 7.0 | 0.00 | 0.27 | 0.27 | 98 | 1007.1 |